TimeAKDT,TemperatureF,Dew PointF,Humidity,Sea Level PressureIn,VisibilityMPH,Wind Direction,Wind SpeedMPH,Gust SpeedMPH,PrecipitationIn,Events,Conditions,WindDirDegrees,DateUTC
12:53 AM,55.0,36.0,49,29.75,10.0,WNW,19.6,-,N/A,,Mostly Cloudy,300,2013-09-16 08:53:00
1:53 AM,55.0,36.0,49,29.75,10.0,WNW,16.1,-,N/A,,Mostly Cloudy,300,2013-09-16 09:53:00
2:53 AM,54.0,35.1,49,29.73,10.0,WNW,15.0,25.3,N/A,,Scattered Clouds,300,2013-09-16 10:53:00
3:53 AM,53.1,36.0,52,29.73,10.0,WNW,16.1,-,N/A,,Scattered Clouds,290,2013-09-16 11:53:00
4:53 AM,53.1,37.0,55,29.71,10.0,WNW,17.3,24.2,N/A,,Scattered Clouds,300,2013-09-16 12:53:00
5:53 AM,53.1,36.0,52,29.70,10.0,WNW,16.1,23.0,N/A,,Scattered Clouds,300,2013-09-16 13:53:00
6:53 AM,53.1,36.0,52,29.68,10.0,WNW,16.1,-,N/A,,Scattered Clouds,300,2013-09-16 14:53:00
7:53 AM,52.0,37.0,57,29.68,10.0,NW,13.8,-,N/A,,Scattered Clouds,310,2013-09-16 15:53:00
8:53 AM,52.0,37.9,59,29.67,10.0,WNW,11.5,-,N/A,,Mostly Cloudy,290,2013-09-16 16:53:00
9:53 AM,53.1,37.9,57,29.67,10.0,WNW,8.1,-,N/A,,Mostly Cloudy,300,2013-09-16 17:53:00
10:53 AM,57.0,37.0,47,29.65,10.0,WNW,15.0,24.2,N/A,,Mostly Cloudy,290,2013-09-16 18:53:00
11:53 AM,59.0,36.0,42,29.65,10.0,West,18.4,26.5,N/A,,Scattered Clouds,280,2013-09-16 19:53:00
12:53 PM,60.1,36.0,41,29.64,10.0,West,13.8,-,N/A,,Scattered Clouds,270,2013-09-16 20:53:00
1:53 PM,62.1,34.0,35,29.63,10.0,West,15.0,23.0,N/A,,Scattered Clouds,270,2013-09-16 21:53:00
2:53 PM,62.1,35.1,37,29.62,10.0,West,13.8,23.0,N/A,,Scattered Clouds,270,2013-09-16 22:53:00
3:53 PM,62.1,34.0,35,29.61,10.0,WNW,16.1,23.0,N/A,,Scattered Clouds,290,2013-09-16 23:53:00
4:53 PM,61.0,36.0,39,29.60,10.0,WNW,16.1,23.0,N/A,,Scattered Clouds,290,2013-09-17 00:53:00
5:53 PM,60.1,37.9,44,29.59,10.0,WNW,13.8,-,N/A,,Scattered Clouds,290,2013-09-17 01:53:00
6:53 PM,57.9,37.9,47,29.59,10.0,WNW,6.9,-,N/A,,Scattered Clouds,290,2013-09-17 02:53:00
7:53 PM,55.0,39.0,55,29.59,10.0,West,11.5,20.7,N/A,,Scattered Clouds,280,2013-09-17 03:53:00
8:53 PM,53.1,39.9,61,29.60,10.0,WNW,10.4,-,N/A,,Scattered Clouds,300,2013-09-17 04:53:00
9:53 PM,50.0,39.9,68,29.60,10.0,West,3.5,-,N/A,,Scattered Clouds,260,2013-09-17 05:53:00
10:53 PM,48.9,39.9,71,29.60,10.0,Calm,Calm,-,N/A,,Scattered Clouds,0,2013-09-17 06:53:00
11:53 PM,45.0,39.9,82,29.59,10.0,WNW,4.6,-,N/A,,Partly Cloudy,290,2013-09-17 07:53:00